{"data":{"norad_id":52110,"epoch":"2026-05-25T03:17:45.972960Z","epoch_age_seconds":57196,"freshness":"FRESH","line1":"1 52110U 22029Y   26145.13733765 -.00000754  00000+0 -29280-4 0  9999","line2":"2 52110  53.2140  95.9329 0001743  83.1882 276.9308 15.08845248232320","mean_motion":15.08845248,"eccentricity":0.0001743,"inclination_deg":53.214,"raan_deg":95.9329,"arg_perigee_deg":83.1882,"mean_anomaly_deg":276.9308,"bstar":-2.928e-5,"rev_number":23232,"period_min":95.437222731009,"perigee_km":538.52156421824,"apogee_km":540.93313172994,"semimajor_km":6917.8643479741,"source":"CELESTRAK","updated_at":"2026-05-25T13:38:17.072928Z"}}